sat.trackr.live / text

‹ back to catalog

STARLINK-11344 [DTC]

NORAD 61688 · 2024-195B

PAYLOAD ACTIVE UNKNOWN

§ Identity

Operator
Country
US
Launch date
2024-10-30
Launch site
AFWTR
Launch vehicle
Mass (kg)
RCS (m²)

Purposes: comms

External: N2YO · Heavens-Above · Gunter

§ Orbital elements

Epoch: 2026-05-24T23:47:23.498016Z

Period
91.74 min
Inclination
53.1609°
Eccentricity
0.0000982
Mean motion
15.69708363 rev/d
Perigee alt
359.1 km
Apogee alt
360.4 km
Semi-major
6,737.9 km
B*
1.2889e-5
RAAN
10.4187°
Arg perigee
84.6046°
Mean anomaly
275.5084°
Rev number
9,101

§ Raw data

STARLINK-11344 [DTC]1 61688U 24195B   26144.99124419  .00000973  00000+0  12889-4 0  99962 61688  53.1609  10.4187 0000982  84.6046 275.5084 15.69708363 91013

JSON: /api/v1/satellites/61688 · /tle

For live sub-satellite position, see the globe view (requires WebGL).

§ Visibility from observer

Set your observer location to see the next 7 days of passes ≥ 10°. The values pass through the URL so the page stays shareable.

No JS? Fill the form by hand. The geolocation button needs JavaScript.